Terminal Aerodrome Forecast
Issued by NWS

Home | Current Version | Previous Version | Text Only | Print | Product List | Glossary On
Versions: 1 2 3 4 5 6 7 8 9 10 11 12
000
FTUS45 KABQ 290500
TAFROW
TAF
KROW 290531Z 2906/3006 VRB05KT P6SM SKC
      TEMPO 2920/2924 17008KT=

USA.gov is the U.S. government's official web portal to all federal, state and local government web resources and services.